Back to catalog

STARLINK-32646

AliveCommunicationsVLEO
NORAD 62307·PAYLOAD·🇺🇸 United States

Launched Dec 13, 2024 from Vandenberg Space Force Base

Loading…

Next Passes (next 24 hours)

TLE

FreshSource: CelesTrak SupGP

Epoch: Sep 14, 2026, 13:57 UTC

1 62307C 24239G   26257.58173611 -.00112300  00000+0 -33168-2 0  2570
2 62307  53.1593  21.5196 0001113  71.4630   0.4350 15.34457236    10

Track STARLINK-32646 in real time with AllMySat

Download on the App Store